Lewistown, MT

1:48 AM MST on December 04, 2016 (GMT -0700)
Lewistown Municipal

Weather History for KLWT - February, 2011

Change the Weather History Date:

Wednesday, February 9, 2011

  Actual Average Record
Temperature  
Mean Temperature 4 °F 25 °F  
Max Temperature 22 °F 36 °F 58 °F (1926)
Min Temperature -15 °F 14 °F -35 °F (1939)
Degree Days  
Heating Degree Days 61 40  
Month to date heating degree days 463 363  
Since 1 July heating degree days 5351 5068  
Cooling Degree Days 0 0  
Month to date cooling degree days 0 0  
Year to date cooling degree days 0 0  
Moisture  
Dew Point 1 °F    
Average Humidity 75    
Maximum Humidity 87    
Minimum Humidity 62    
Precipitation  
Precipitation 0.00 in 0.01 in 0.67 in (1934)
Month to date precipitation 0.24 0.14  
Year to date precipitation 0.90 0.71  
Snow  
Snow 0.00 in - - ()
Snow Depth 6.00 in    
Sea Level Pressure  
Sea Level Pressure 30.30 in    
Wind  
Wind Speed 13 mph (WSW)    
Max Wind Speed 29 mph    
Max Gust Speed 37 mph    
Visibility 10 miles    
Events      
T = Trace of Precipitation, MM = Missing Value Source: NWS Daily Summary

Daily Weather History Graph

Daily Weather History Graph

Search for Another Location

Airport or City:

Trip Planner

Search our weather history database for the weather conditions in past years. The results will help you decide how hot, cold, wet, or windy it might be!

Date:

Astronomy

Feb. 09, 2011 Rise Set
Actual Time 7:32 AM MST 5:32 PM MST
Civil Twilight 7:00 AM MST 6:04 PM MST
Nautical Twilight 6:24 AM MST 6:40 PM MST
Astronomical Twilight 5:48 AM MST 7:16 PM MST
Moon 9:41 AM MST (2/9) No Moon Set
Length of Visible Light 11h 04m
Length of Day
10h 00m
Waxing Crescent, 36% of the Moon is Illuminated
Feb 9
Waxing Crescent
Feb 11
First Quarter
Feb 18
Full
Feb 24
Last Quarter
Mar 4
New

Hourly Weather History & Observations

Time (MST) Temp. Windchill Dew Point Humidity Pressure Visibility Wind Dir Wind Speed Gust Speed Precip Events Conditions
12:54 AM -14.1 °F -31.3 °F -18.0 °F 82% 30.58 in 10.0 mi SE 8.1 mph - N/A   Clear
1:54 AM -11.9 °F -31.0 °F -17.0 °F 78% 30.53 in 10.0 mi SE 10.4 mph - N/A   Clear
2:54 AM -11.9 °F -23.8 °F -16.1 °F 82% 30.50 in 10.0 mi SSE 4.6 mph - N/A   Clear
3:54 AM -13.0 °F -28.6 °F -18.0 °F 78% 30.45 in 10.0 mi ESE 6.9 mph - N/A   Clear
5:54 AM -8.0 °F -23.9 °F -13.0 °F 79% 30.40 in 10.0 mi SE 8.1 mph - N/A   Clear
6:54 AM -7.1 °F -22.8 °F -11.0 °F 83% 30.37 in 10.0 mi SE 8.1 mph - N/A   Clear
7:54 AM -6.0 °F -16.9 °F -9.9 °F 83% 30.37 in 10.0 mi Variable 4.6 mph - N/A   Clear
9:54 AM 12.9 °F -4.4 °F 3.9 °F 67% 30.34 in 10.0 mi SW 18.4 mph - N/A   Clear
10:54 AM 16.0 °F 2.3 °F 7.0 °F 68% 30.33 in 6.0 mi SW 12.7 mph - N/A   Haze
11:54 AM 19.9 °F 6.2 °F 9.0 °F 62% 30.30 in 10.0 mi West 15.0 mph - N/A   Clear
12:54 PM 21.9 °F 4.2 °F 10.9 °F 63% 30.27 in 3.0 mi WNW 28.8 mph 35.7 mph N/A   Haze
2:54 PM 21.0 °F 6.2 °F 12.0 °F 68% 30.26 in 10.0 mi WNW 18.4 mph - N/A   Clear
3:54 PM 19.0 °F 6.1 °F 12.0 °F 74% 30.25 in 10.0 mi WNW 12.7 mph - N/A   Clear
4:54 PM 16.0 °F 7.4 °F 10.0 °F 77% 30.25 in 10.0 mi WNW 5.8 mph - N/A   Clear
5:54 PM 15.1 °F 2.5 °F 7.0 °F 70% 30.25 in 10.0 mi West 10.4 mph - N/A   Partly Cloudy
6:54 PM 16.0 °F -0.9 °F 7.0 °F 68% 30.22 in 10.0 mi West 19.6 mph - N/A   Clear
7:54 PM 18.0 °F 1.7 °F 10.0 °F 71% 30.22 in 10.0 mi WSW 19.6 mph - N/A   Clear
8:54 PM 17.1 °F 0.6 °F 9.0 °F 71% 30.17 in 10.0 mi WSW 19.6 mph - N/A   Clear
9:54 PM 17.1 °F 1.0 °F 9.0 °F 71% 30.13 in 10.0 mi WSW 18.4 mph - N/A   Overcast
10:54 PM 15.1 °F 0.5 °F 8.1 °F 74% 30.12 in 10.0 mi West 13.8 mph - N/A   Clear
11:54 PM 18.0 °F 3.1 °F 10.9 °F 74% 30.09 in 10.0 mi West 16.1 mph - N/A   Mostly Cloudy